• In Spain
  • List of Countries
  • For 7 days
  • Water Temperature
  • Satellite Maps
  • Weather Map
  • Weather Widgets
  • user-avatar
    Login

    Hourly Weather Sequeira

    Today, 25 June, Monday

    Time Temperature Precipitation Wind Pressure Humidity
    00:00 +21°C° 0 mm 1 mps 689 mmHg 81%
    01:00 +21°C° 0.1 mm 1 mps 689 mmHg 81%
    02:00 +20°C° 0.1 mm 1 mps 689 mmHg 82%
    03:00 +18°C° 0.1 mm 0 mps 689 mmHg 82%
    04:00 +18°C° 0.2 mm 0 mps 689 mmHg 82%
    05:00 +18°C° 0.2 mm 0 mps 689 mmHg 81%
    06:00 +18°C° 0.2 mm 0 mps 689 mmHg 80%
    07:00 +22°C° 0.1 mm 1 mps 689 mmHg 72%
    08:00 +24°C° 0.1 mm 1 mps 690 mmHg 64%
    09:00 +26°C° 0.1 mm 1 mps 690 mmHg 56%
    10:00 +27°C° 0 mm 2 mps 691 mmHg 51%
    11:00 +29°C° 0 mm 2 mps 691 mmHg 45%
    12:00 +30°C° 0 mm 3 mps 692 mmHg 40%
    13:00 +31°C° 0 mm 3 mps 691 mmHg 39%
    14:00 +31°C° 0 mm 3 mps 691 mmHg 37%
    15:00 +33°C° 0 mm 3 mps 691 mmHg 36%
    16:00 +32°C° 0 mm 4 mps 691 mmHg 40%
    17:00 +30°C° 0 mm 4 mps 691 mmHg 44%
    18:00 +28°C° 0 mm 4 mps 691 mmHg 48%
    19:00 +26°C° 0.1 mm 3 mps 690 mmHg 58%
    20:00 +24°C° 0.1 mm 3 mps 690 mmHg 68%
    21:00 +20°C° 0.1 mm 3 mps 690 mmHg 78%
    22:00 +19°C° 0 mm 2 mps 690 mmHg 81%
    23:00 +19°C° 0 mm 2 mps 690 mmHg 84%

    Tomorrow, 26 June, Tuesday

    Time Temperature Precipitation Wind Pressure Humidity
    00:00 +19°C° 0 mm 1 mps 690 mmHg 87%
    01:00 +18°C° 0 mm 1 mps 690 mmHg 89%
    02:00 +18°C° 0 mm 1 mps 690 mmHg 90%
    03:00 +16°C° 0 mm 1 mps 689 mmHg 91%
    04:00 +16°C° 0 mm 1 mps 689 mmHg 90%
    05:00 +16°C° 0 mm 1 mps 689 mmHg 89%
    06:00 +16°C° 0 mm 1 mps 690 mmHg 88%
    07:00 +19°C° 0 mm 1 mps 690 mmHg 77%
    08:00 +21°C° 0 mm 1 mps 691 mmHg 67%
    09:00 +23°C° 0 mm 1 mps 691 mmHg 57%
    10:00 +25°C° 0 mm 2 mps 691 mmHg 49%
    11:00 +27°C° 0 mm 2 mps 692 mmHg 41%
    12:00 +28°C° 0 mm 3 mps 692 mmHg 33%
    13:00 +28°C° 0 mm 3 mps 692 mmHg 31%
    14:00 +29°C° 0 mm 3 mps 692 mmHg 30%
    15:00 +29°C° 0 mm 4 mps 691 mmHg 28%
    16:00 +28°C° 0 mm 4 mps 691 mmHg 33%
    17:00 +27°C° 0 mm 4 mps 691 mmHg 37%
    18:00 +26°C° 0 mm 4 mps 691 mmHg 41%
    19:00 +24°C° 0 mm 3 mps 691 mmHg 52%
    20:00 +20°C° 0 mm 3 mps 690 mmHg 62%
    21:00 +18°C° 0 mm 2 mps 690 mmHg 72%
    22:00 +17°C° 0 mm 2 mps 690 mmHg 76%
    23:00 +16°C° 0 mm 2 mps 690 mmHg 80%

    Day after tomorrow, 27 June, Wednesday

    Time Temperature Precipitation Wind Pressure Humidity
    00:00 +15°C° 0 mm 1 mps 690 mmHg 84%
    01:00 +15°C° 0 mm 1 mps 690 mmHg 85%
    02:00 +14°C° 0 mm 1 mps 690 mmHg 86%
    03:00 +14°C° 0 mm 1 mps 689 mmHg 88%
    04:00 +14°C° 0 mm 1 mps 689 mmHg 86%
    05:00 +14°C° 0 mm 1 mps 689 mmHg 85%
    06:00 +14°C° 0 mm 1 mps 689 mmHg 84%
    07:00 +16°C° 0 mm 1 mps 690 mmHg 73%
    08:00 +19°C° 0 mm 1 mps 690 mmHg 62%
    09:00 +22°C° 0 mm 1 mps 691 mmHg 52%
    10:00 +23°C° 0 mm 1 mps 691 mmHg 46%
    11:00 +25°C° 0 mm 2 mps 691 mmHg 40%
    12:00 +26°C° 0 mm 2 mps 691 mmHg 33%
    13:00 +27°C° 0 mm 2 mps 691 mmHg 33%
    14:00 +27°C° 0 mm 3 mps 691 mmHg 32%
    15:00 +28°C° 0 mm 3 mps 690 mmHg 31%
    16:00 +27°C° 0 mm 3 mps 690 mmHg 34%
    17:00 +26°C° 0 mm 4 mps 690 mmHg 38%
    18:00 +26°C° 0 mm 4 mps 689 mmHg 41%
    19:00 +22°C° 0 mm 3 mps 689 mmHg 50%
    20:00 +20°C° 0 mm 3 mps 689 mmHg 60%
    21:00 +18°C° 0 mm 2 mps 689 mmHg 69%
    22:00 +17°C° 0 mm 2 mps 689 mmHg 72%
    23:00 +16°C° 0 mm 2 mps 689 mmHg 76%

    28 June, Thursday

    Time Temperature Precipitation Wind Pressure Humidity
    00:00 +15°C° 0 mm 1 mps 688 mmHg 79%
    01:00 +15°C° 0 mm 1 mps 688 mmHg 79%
    02:00 +15°C° 0 mm 1 mps 688 mmHg 79%
    03:00 +15°C° 0 mm 1 mps 687 mmHg 80%
    04:00 +15°C° 0 mm 1 mps 687 mmHg 80%
    05:00 +15°C° 0 mm 1 mps 687 mmHg 80%
    06:00 +15°C° 0 mm 1 mps 687 mmHg 81%
    07:00 +18°C° 0 mm 1 mps 687 mmHg 73%
    08:00 +20°C° 0 mm 1 mps 688 mmHg 65%
    09:00 +23°C° 0 mm 1 mps 688 mmHg 58%
    10:00 +24°C° 0 mm 1 mps 688 mmHg 52%
    11:00 +25°C° 0 mm 1 mps 688 mmHg 46%
    12:00 +27°C° 0 mm 1 mps 688 mmHg 41%
    13:00 +27°C° 0 mm 2 mps 687 mmHg 39%
    14:00 +27°C° 0 mm 2 mps 687 mmHg 38%
    15:00 +27°C° 0 mm 3 mps 687 mmHg 36%
    16:00 +26°C° 0.4 mm 3 mps 686 mmHg 44%
    17:00 +23°C° 0.4 mm 4 mps 686 mmHg 51%
    18:00 +22°C° 0.4 mm 4 mps 686 mmHg 58%
    19:00 +20°C° 0 mm 3 mps 685 mmHg 64%
    20:00 +19°C° 0 mm 3 mps 685 mmHg 70%
    21:00 +18°C° 0 mm 2 mps 685 mmHg 77%
    22:00 +17°C° 0 mm 2 mps 685 mmHg 80%
    23:00 +16°C° 0 mm 1 mps 685 mmHg 83%

    29 June, Friday

    Time Temperature Precipitation Wind Pressure Humidity
    00:00 +15°C° 0 mm 1 mps 685 mmHg 86%
    01:00 +14°C° 0 mm 1 mps 684 mmHg 87%
    02:00 +14°C° 0 mm 1 mps 684 mmHg 88%
    03:00 +13°C° 0 mm 1 mps 683 mmHg 89%
    04:00 +14°C° 0 mm 1 mps 683 mmHg 87%
    05:00 +14°C° 0 mm 1 mps 683 mmHg 86%
    06:00 +14°C° 0 mm 1 mps 684 mmHg 85%
    07:00 +16°C° 0 mm 1 mps 684 mmHg 76%
    08:00 +19°C° 0 mm 1 mps 685 mmHg 68%
    09:00 +21°C° 0 mm 1 mps 685 mmHg 59%
    10:00 +23°C° 0 mm 2 mps 685 mmHg 51%
    11:00 +24°C° 0 mm 2 mps 685 mmHg 44%
    12:00 +26°C° 0 mm 3 mps 685 mmHg 37%
    13:00 +26°C° 0 mm 3 mps 685 mmHg 35%
    14:00 +27°C° 0 mm 3 mps 685 mmHg 33%
    15:00 +27°C° 0 mm 3 mps 685 mmHg 32%
    16:00 +27°C° 0 mm 3 mps 685 mmHg 34%
    17:00 +26°C° 0 mm 3 mps 685 mmHg 37%
    18:00 +25°C° 0 mm 3 mps 685 mmHg 39%
    19:00 +22°C° 0 mm 3 mps 685 mmHg 48%
    20:00 +20°C° 0 mm 2 mps 684 mmHg 58%
    21:00 +18°C° 0 mm 2 mps 684 mmHg 68%
    22:00 +17°C° 0.2 mm 2 mps 684 mmHg 72%
    23:00 +18°C° 0.2 mm 1 mps 684 mmHg 76%

    30 June, Saturday

    Time Temperature Precipitation Wind Pressure Humidity
    00:00 +16°C° 0.2 mm 1 mps 684 mmHg 80%
    01:00 +16°C° 0.9 mm 1 mps 684 mmHg 83%
    02:00 +15°C° 0.9 mm 1 mps 684 mmHg 86%
    03:00 +15°C° 0.9 mm 1 mps 684 mmHg 89%
    04:00 +14°C° 1.2 mm 1 mps 684 mmHg 89%
    05:00 +14°C° 1.2 mm 1 mps 684 mmHg 90%
    06:00 +14°C° 1.2 mm 1 mps 684 mmHg 90%
    07:00 +16°C° 0.1 mm 2 mps 685 mmHg 83%
    08:00 +17°C° 0.1 mm 2 mps 686 mmHg 75%
    09:00 +19°C° 0.1 mm 3 mps 686 mmHg 67%
    10:00 +19°C° 0 mm 3 mps 686 mmHg 62%
    11:00 +20°C° 0 mm 4 mps 687 mmHg 57%
    12:00 +21°C° 0 mm 4 mps 687 mmHg 53%
    13:00 +22°C° 0 mm 4 mps 687 mmHg 51%
    14:00 +22°C° 0 mm 4 mps 687 mmHg 49%
    15:00 +22°C° 0 mm 4 mps 687 mmHg 48%
    16:00 +22°C° 0 mm 4 mps 687 mmHg 49%
    17:00 +22°C° 0 mm 4 mps 687 mmHg 51%
    18:00 +21°C° 0 mm 3 mps 687 mmHg 53%
    19:00 +19°C° 0 mm 3 mps 687 mmHg 61%
    20:00 +18°C° 0 mm 2 mps 687 mmHg 69%
    21:00 +16°C° 0 mm 2 mps 687 mmHg 77%
    22:00 +15°C° 0 mm 1 mps 687 mmHg 80%
    23:00 +14°C° 0 mm 1 mps 687 mmHg 83%
    Show more